DAH4003 DTTA-DAAG

Flight info

Callsign DAH4003
Flight time N/A
Altitude 38000
Route KEMIR2A KEMIR A411 BJA DCT 37N004E DCT ZEM
Aircraft A20N/M-SDE2E3FGHIRWXY/LB1

Departure

Time 2026-05-01 15:12
Airport Tunis Carthage International Airport (DTTA)

Arrival

Time N/A
Airport Houari Boumediene Airport (DAAG)
Time Latitude Longitude Altitude Speed Heading
2026-05-01 14:23 36.84566 10.22007 33 ft 0 kts 292°
2026-05-01 14:53 36.84566 10.22008 33 ft 0 kts 292°
2026-05-01 14:59 36.84565 10.22008 33 ft 0 kts 292°
2026-05-01 15:01 36.84559 10.22028 32 ft 3 kts 292°
2026-05-01 15:01 36.84552 10.22050 32 ft 3 kts 274°
2026-05-01 15:01 36.84556 10.22074 30 ft 3 kts 232°
2026-05-01 15:02 36.84571 10.22088 32 ft 3 kts 191°
2026-05-01 15:02 36.84584 10.22090 32 ft 3 kts 198°
2026-05-01 15:02 36.84585 10.22091 32 ft 0 kts 202°
2026-05-01 15:06 36.84585 10.22090 32 ft 0 kts 202°
2026-05-01 15:06 36.84577 10.22087 32 ft 2 kts 199°
2026-05-01 15:06 36.84554 10.22083 32 ft 7 kts 176°
2026-05-01 15:06 36.84512 10.22109 33 ft 8 kts 127°
2026-05-01 15:07 36.84498 10.22169 33 ft 7 kts 102°
2026-05-01 15:07 36.84483 10.22224 33 ft 6 kts 125°
2026-05-01 15:07 36.84449 10.22246 33 ft 5 kts 176°
2026-05-01 15:07 36.84414 10.22235 33 ft 5 kts 197°
2026-05-01 15:08 36.84380 10.22226 33 ft 5 kts 192°
2026-05-01 15:08 36.84347 10.22217 33 ft 6 kts 193°
2026-05-01 15:08 36.84271 10.22195 32 ft 15 kts 192°
2026-05-01 15:08 36.84146 10.22162 33 ft 22 kts 191°
2026-05-01 15:09 36.83984 10.22121 33 ft 24 kts 191°
2026-05-01 15:09 36.83870 10.22138 33 ft 12 kts 112°
2026-05-01 15:09 36.83877 10.22232 32 ft 10 kts 71°
2026-05-01 15:09 36.83908 10.22305 34 ft 9 kts 49°
2026-05-01 15:10 36.83949 10.22362 34 ft 9 kts 42°
2026-05-01 15:10 36.84023 10.22406 34 ft 0 kts 13°
2026-05-01 15:11 36.84203 10.22455 34 ft 58 kts 12°
2026-05-01 15:11 36.84800 10.22615 35 ft 117 kts 12°
2026-05-01 15:12 36.85743 10.22878 129 ft 152 kts 14°
2026-05-01 15:12 36.87821 10.23540 1164 ft 151 kts 15°
2026-05-01 15:12 36.88839 10.23814 1880 ft 150 kts 16°
2026-05-01 15:13 36.92550 10.24508 3117 ft 227 kts 353°
2026-05-01 15:14 36.95676 10.22585 4105 ft 268 kts 326°
2026-05-01 15:14 36.97124 10.21055 4868 ft 276 kts 313°
2026-05-01 15:14 36.98315 10.16649 6961 ft 274 kts 264°
2026-05-01 15:15 36.96864 10.12362 9062 ft 269 kts 245°
2026-05-01 15:15 36.95222 10.07969 10334 ft 287 kts 254°
2026-05-01 15:16 36.94037 10.02860 11048 ft 326 kts 259°
2026-05-01 15:16 36.92983 9.97019 11723 ft 362 kts 261°
2026-05-01 15:17 36.91922 9.90754 13004 ft 376 kts 261°
2026-05-01 15:18 36.90293 9.81000 15038 ft 387 kts 261°
2026-05-01 15:18 36.89744 9.77709 15678 ft 390 kts 261°
2026-05-01 15:19 36.88063 9.67652 17593 ft 398 kts 261°
2026-05-01 15:19 36.86926 9.60875 18761 ft 404 kts 261°
2026-05-01 15:19 36.86347 9.57434 19308 ft 406 kts 261°
2026-05-01 15:20 36.85176 9.50498 20421 ft 409 kts 260°
2026-05-01 15:20 36.84594 9.47057 20965 ft 410 kts 260°
2026-05-01 15:20 36.84023 9.43561 21493 ft 411 kts 262°
2026-05-01 15:21 36.83687 9.40017 22014 ft 412 kts 266°
2026-05-01 15:21 36.83516 9.36448 22494 ft 414 kts 269°
2026-05-01 15:21 36.83430 9.32846 22956 ft 416 kts 269°
2026-05-01 15:21 36.83380 9.29214 23443 ft 418 kts 269°
2026-05-01 15:22 36.83285 9.21973 24208 ft 423 kts 269°
2026-05-01 15:22 36.83221 9.18294 24549 ft 426 kts 269°
2026-05-01 15:22 36.83147 9.14626 24880 ft 428 kts 269°
2026-05-01 15:23 36.83063 9.10893 25243 ft 430 kts 269°
2026-05-01 15:23 36.82974 9.07170 25611 ft 433 kts 269°
2026-05-01 15:23 36.82880 9.03410 25952 ft 435 kts 269°
2026-05-01 15:23 36.82784 8.99616 26286 ft 437 kts 269°
2026-05-01 15:24 36.82732 8.95803 26617 ft 440 kts 270°
2026-05-01 15:24 36.82773 8.91996 26953 ft 441 kts 271°
2026-05-01 15:24 36.82863 8.88139 27265 ft 444 kts 272°
2026-05-01 15:24 36.82971 8.84343 27622 ft 445 kts 272°
2026-05-01 15:25 36.83081 8.80484 28081 ft 443 kts 272°
2026-05-01 15:25 36.83184 8.76634 28520 ft 442 kts 272°
2026-05-01 15:25 36.83279 8.72838 28926 ft 441 kts 272°
2026-05-01 15:25 36.83366 8.69013 29356 ft 440 kts 272°
2026-05-01 15:26 36.83445 8.65189 29780 ft 440 kts 271°
2026-05-01 15:26 36.83484 8.61417 30191 ft 439 kts 271°
2026-05-01 15:26 36.83493 8.57548 30560 ft 438 kts 270°
2026-05-01 15:26 36.83486 8.53815 31003 ft 435 kts 270°
2026-05-01 15:27 36.83475 8.50085 31698 ft 425 kts 270°
2026-05-01 15:27 36.83465 8.46443 32440 ft 413 kts 270°
2026-05-01 15:27 36.83457 8.42903 33216 ft 401 kts 269°
2026-05-01 15:28 36.83446 8.36164 34683 ft 375 kts 269°
2026-05-01 15:28 36.83441 8.32989 35164 ft 367 kts 269°
2026-05-01 15:28 36.83436 8.29837 35644 ft 358 kts 269°
2026-05-01 15:29 36.83424 8.23722 36306 ft 349 kts 269°
2026-05-01 15:29 36.83416 8.20726 36367 ft 351 kts 269°
2026-05-01 15:29 36.83397 8.14649 36721 ft 348 kts 269°
2026-05-01 15:30 36.83377 8.08672 37230 ft 339 kts 269°
2026-05-01 15:31 36.83330 7.97084 37904 ft 328 kts 269°
2026-05-01 15:31 36.83302 7.91384 37959 ft 329 kts 269°
2026-05-01 15:32 36.83272 7.85704 38106 ft 327 kts 269°
2026-05-01 15:32 36.83235 7.80020 38160 ft 328 kts 269°
2026-05-01 15:33 36.83147 7.71413 37955 ft 338 kts 268°
2026-05-01 15:34 36.83111 7.62061 36303 ft 391 kts 270°